Regional Weather Roundup
Issued by NWS

Home | Current Version | Previous Version | Text Only | Print | Product List | Glossary On
Versions: 1 2 3 4 5 6 7 8 9 10 11 12 13 14 15 16 17 18 19 20 21 22 23 24 25 26 27 28 29 30 31 32 33 34 35 36 37 38 39 40 41 42 43 44 45 46 47 48 49 50
000
ASUS43 KMKX 281200
RWRWI

WISCONSIN REGIONAL WEATHER ROUNDUP
NATIONAL WEATHER SERVICE MILWAUKEE/SULLIVAN WI
700 AM CDT TUE JUL 28 2015

NOTE: "FAIR" INDICATES FEW OR NO CLOUDS BELOW 12,000 FEET WITH NO
SIGNIFICANT WEATHER AND/OR OBSTRUCTIONS TO VISIBILITY.

WIZ001-002-006>008-014>016-023>028-281300-
NORTHWEST WISCONSIN

CITY           SKY/WX    TMP DP  RH WIND       PRES   REMARKS
SUPERIOR ARPT  CLOUDY    69  66  92 E3        29.82F
ASHLAND        PTSUNNY   70  65  84 SE6       29.88F
6HR MIN TEMP:  59; 6HR MAX TEMP:  70;

HAYWARD        CLOUDY    71  64  78 S10       29.91R
6HR MIN TEMP:  69; 6HR MAX TEMP:  73;

SIREN          CLOUDY    72  67  85 S10       29.85R
CUMBERLAND     CLOUDY    68  66  94 SE8       29.88S
RICE LAKE      CLOUDY    70  65  85 SE9       29.90S
CHETEK         CLOUDY    69  66  90 SE10      29.90R
LADYSMITH      PTSUNNY   69  63  82 SE7       29.93S
EAU CLAIRE     NOT AVBL
MENOMONIE      CLOUDY    70  68  93 SE10      29.88S
NEW RICHMOND   CLOUDY    72  70  93 SE13G18   29.83F
OSCEOLA        CLOUDY    73  73  99 SE13      29.84F
$$

WIZ003>005-009-010-017-018-281300-
NORTH CENTRAL WISCONSIN

CITY           SKY/WX    TMP DP  RH WIND       PRES   REMARKS
MANITOWISH WTR MOSUNNY   67  64  87 SE3       29.97F
ARBOR VITAE    MOSUNNY   72  64  75 S7        29.98S
WOODRUFF       MOSUNNY   72  64  75 S7        29.98S
RHINELANDER    SUNNY     66  60  81 SE5       30.00R
6HR MIN TEMP:  59; 6HR MAX TEMP:  69;

EAGLE RIVER    SUNNY     65  62  89 S5        29.99S
LAND O LAKES   SUNNY     60  60 100 SE3       30.00S
PHILLIPS       CLOUDY    69  62  79 SE7       29.94S
6HR MIN TEMP:  67; 6HR MAX TEMP:  69;

TOMAHAWK       MOSUNNY   65  60  84 CALM      29.98S
MEDFORD        MOSUNNY   65  62  89 S7        29.97R
MERRILL        NOT AVBL
$$

WIZ029-030-035-036-043>047-281300-
CENTRAL WISCONSIN

CITY           SKY/WX    TMP DP  RH WIND       PRES   REMARKS
WAUSAU         SUNNY     68  61  78 S9        29.97S
6HR MIN TEMP:  64; 6HR MAX TEMP:  68;

MOSINEE        NOT AVBL
MARSHFIELD     SUNNY     68  61  78 S10       29.97R
6HR MIN TEMP:  67; 6HR MAX TEMP:  71;

STEVENS POINT  SUNNY     65  60  82 SE6       29.99R
WAUPACA        SUNNY     64  63  97 CALM      29.99S
WAUTOMA        NOT AVBL
WISC RAPIDS    SUNNY     69  60  73 S6        29.99R
6HR MIN TEMP:  67; 6HR MAX TEMP:  70;

CAMP DOUGLAS   NOT AVBL
$$

WIZ011>013-019>022-031-037>040-048>050-281300-
NORTHEAST WISCONSIN

CITY           SKY/WX    TMP DP  RH WIND       PRES   REMARKS
ANTIGO         SUNNY     63  62  96 S3        30.02S
SHAWANO        SUNNY     69  62  78 S5        29.99S
OCONTO         SUNNY     60  60 100 CALM      30.00R
STURGEON BAY   SUNNY     70  61  73 SE5       30.04R
6HR MIN TEMP:  64; 6HR MAX TEMP:  70;

GREEN BAY      SUNNY     66  63  90 CALM      30.00R
6HR MIN TEMP:  59; 6HR MAX TEMP:  66;

MANITOWOC      NOT AVBL
APPLETON       MOSUNNY   70  63  78 VRB5      30.00R
CLINTONVILLE   SUNNY     63  61  94 CALM      29.99S FOG
OSHKOSH        SUNNY     67  62  84 S7        29.99S
6HR MIN TEMP:  59; 6HR MAX TEMP:  67;

$$

WIZ032>034-041-042-053>061-281300-
SOUTHWEST WISCONSIN

CITY           SKY/WX    TMP DP  RH WIND       PRES   REMARKS
LA CROSSE      PTSUNNY   75  64  68 S12       29.93R
6HR MIN TEMP:  72; 6HR MAX TEMP:  75;

SPARTA         MOSUNNY   72  61  67 S3        29.96R
VIROQUA        PTSUNNY   68  64  86 SE8       29.97S
BOSCOBEL       SUNNY     72  65  78 CALM      29.96R
6HR MIN TEMP:  67; 6HR MAX TEMP:  72;

PRAIRIE DU CHI MOSUNNY   70  64  81 E5        29.96R
PLATTEVILLE    SUNNY     67  65  91 E8        29.98S
$$

WIZ056-057-062-063-064-067-068-281300-
SOUTH CENTRAL WISCONSIN

CITY           SKY/WX    TMP DP  RH WIND       PRES   REMARKS
REEDSBURG      SUNNY     66  63  88 CALM      29.98R
BARABOO/DELLS  SUNNY     69  61  77 SE5       29.99R
LONE ROCK      NOT AVBL
MINERAL POINT  SUNNY     68  64  88 SE6       30.00R
MADISON        MOSUNNY   70  62  76 CALM      30.00R
6HR MIN TEMP:  67; 6HR MAX TEMP:  71;

MIDDLETON      SUNNY     69  63  82 CALM      30.00R
WATERTOWN      SUNNY     65  65 100 SE3       30.00R
MONROE         SUNNY     68  63  83 SE5       30.00R
JANESVILLE     SUNNY     68  64  88 SE3       29.99R
$$

WIZ051-052-058>065-066-070>072-281300-
SOUTHEAST WISCONSIN

CITY           SKY/WX    TMP DP  RH WIND       PRES   REMARKS
MILWAUKEE      MOSUNNY   71  66  84 SE7       30.00S
6HR MIN TEMP:  66; 6HR MAX TEMP:  71;

WAUKESHA       SUNNY     63  61  94 CALM      30.01S
MILWAUKEE/TIMM SUNNY     64  61  88 CALM      30.01S
RACINE         SUNNY     69  65  86 CALM      30.02S
6HR MIN TEMP:  64; 6HR MAX TEMP:  71;

BURLINGTON       N/A     58  58  99 CALM      30.00F FOG
KENOSHA        SUNNY     66  65  96 CALM      30.01S FOG
6HR MIN TEMP:  59; 6HR MAX TEMP:  66;

FOND DU LAC    SUNNY     68  63  84 CALM      30.01R
6HR MIN TEMP:  62; 6HR MAX TEMP:  68;

SHEBOYGAN      SUNNY     63  63 100 CALM      30.01R FOG
6HR MIN TEMP:  58; 6HR MAX TEMP:  63;

WEST BEND      SUNNY     59  57  94 CALM      30.01R
JUNEAU           N/A     66  61  85 CALM      30.02R
$$

LSZ147-162-281300-
LAKE SUPERIOR

STATION/POSITION TIME  TEMP    WIND        PRES    WAVE
                       AIR SEA DIR/SP/G            HT/PER
                 (UTC) (F)     (DEG/KT/KT) (MB)    (FT/S)
W MID LAKE BUOY  1050   65 62  140/ 10/ 12 1012.2F   0
DEVILS ISLAND    1100   73     160/ 11/ 14 1011.8R
PORT WING        1100   73     150/  3/  8 1011.2S
SAXON HARBOR     1100   72                 1011.9S
$$

LMZ867-665-643>646-281300-
LAKE MICHIGAN

STATION/POSITION TIME  TEMP    WIND        PRES    WAVE
                       AIR SEA DIR/SP/G            HT/PER
                 (UTC) (F)     (DEG/KT/KT) (MB)    (FT/S)
CHAMBERS ISLAND  1100   69        CALM     1015.9S
S GREEN BAY BUOY 1130   74 75  170/  8/ 10 1017.1S
N MID LAKE BUOY  1050   70 69  200/  2/  2 1016.0R   0
NORTHPORT PIER   1102   69     180/  3/  6 1015.9S
SISTER BAY       1114   71     170/  7/ 10   N/A
ALGOMA LAKESHORE 1142             CALM       N/A
KEWAUNEE LAKESHO 1100   63      40/  1/  2 1015.1F
SHEBOYGAN LAKESH 1100   70     200/  3/  3 1015.7F
PORT WASHINGTON  1140   73      CALM  /  3 1016.6S
ATWATER BUOY     1100   72     180/  6/  8 1017.1F
MILWAUKEE LAKESH 1100   71     180/  2/  2   N/A
KENOSHA   LAKESH 1100   72      CALM  /  1 1015.6S
$$

TC  - TEMPERATURE IN CELSIUS
VSB - VISIBILITY IN STATUTE MILES
WCI - WIND CHILL INDEX
HX  - HEAT INDEX



USA.gov is the U.S. government's official web portal to all federal, state and local government web resources and services.